This demonstration page uses our WeatherBlox Daily Observations layout. Learn more.

Left ArrowRight Arrow

Hourly Observations for May 30, 2020

Temp ( °F °C ) Dew Point ( °F °C ) Humidity (%) Winds ( mph kmh ) Pressure ( in mb ) Visibility ( mi km ) Precip ( " mm )
12:52 am 00:52 Clear 56 13.3 53 11.7 90 90 Calm 30.16 1022 10 16 0.00 0.00
1:52 am 01:52 Clear 55 12.8 52 11.1 90 90 Calm 30.16 1021 10 16 0.00 0.00
2:52 am 02:52 Clear 54 12.2 52 11.1 93 93 Calm 30.15 1021 10 16 0.00 0.00
3:52 am 03:52 Clear 54 12.2 52 11.1 93 93 Calm 30.16 1021 10 16 0.00 0.00
4:52 am 04:52 Clear 56 13.3 52 11.1 87 87 Calm 30.16 1021 10 16 0.00 0.00
5:52 am 05:52 Clear 51 10.6 50 10 96 96 SSE 3 6 30.19 1023 10 16 0.00 0.00
6:52 am 06:52 Sunny 55 12.8 53 11.7 93 93 Calm 30.20 1023 10 16 0.00 0.00
7:52 am 07:52 Sunny 63 17.2 53 11.7 70 70 ENE 3 6 30.20 1023 10 16 0.00 0.00
8:52 am 08:52 Sunny 67 19.4 54 12.2 63 63 ENE 6 9 30.21 1023 10 16 0.00 0.00
9:52 am 09:52 Sunny 70 21.1 54 12.2 57 57 ESE 3 6 30.20 1023 10 16 0.00 0.00
10:52 am 10:52 Sunny 73 22.8 51 10.6 46 46 VRB 6 9 30.20 1023 10 16 0.00 0.00
11:52 am 11:52 Sunny 74 23.3 53 11.7 48 48 ENE 7 11 30.20 1023 10 16 0.00 0.00
12:52 pm 12:52 Sunny 75 23.9 53 11.7 46 46 Calm 30.19 1022 10 16 0.00 0.00
1:52 pm 13:52 Sunny 76 24.4 54 12.2 47 47 NE 6 9 30.18 1022 10 16 0.00 0.00
2:52 pm 14:52 Sunny 75 23.9 54 12.2 48 48 VRB 3 6 30.17 1022 10 16 0.00 0.00
3:52 pm 15:52 Sunny 77 25 53 11.7 43 43 Calm 30.16 1021 10 16 0.00 0.00
4:52 pm 16:52 Sunny 77 25 53 11.7 43 43 ENE 10 17 30.16 1021 10 16 0.00 0.00
5:52 pm 17:52 Sunny 77 25 53 11.7 43 43 NE 8 13 30.15 1021 10 16 0.00 0.00
6:52 pm 18:52 Sunny 76 24.4 52 11.1 43 43 ENE 9 15 30.14 1021 10 16 0.00 0.00
7:52 pm 19:52 Sunny 74 23.3 52 11.1 46 46 E 6 9 30.14 1021 10 16 0.00 0.00
8:52 pm 20:52 Clear 71 21.7 53 11.7 53 53 ENE 7 11 30.15 1021 10 16 0.00 0.00
9:52 pm 21:52 Clear 68 20 54 12.2 61 61 NE 5 7 30.16 1022 10 16 0.00 0.00
10:52 pm 22:52 Clear 65 18.3 55 12.8 70 70 ENE 7 11 30.18 1022 10 16 0.00 0.00
11:52 pm 23:52 Clear 64 17.8 54 12.2 70 70 ENE 6 9 30.18 1022 10 16 0.00 0.00

Powered by AerisWeather